Date_and_time,latitude,longitude,wind_speed,RelWindDirFrom,WindDirFrom,air_pressure,air_temperature,relative_humidity,Temp,platform_speed_wrt_ground,air_pressure_at_mean_sea_level,platform_orientation
2019-07-28 23:40,53.2126666666667,-99.2339066666667,16.3,22.3,290,973.28,18.6,78,19.76,4.5,998.98,223.8
2019-07-28 23:50,53.2126033333333,-99.2332166666667,13.6,19.2,294,973.50,18.7,76,20.84,0.2,999.19,223.8
2019-07-29 00:00,53.2125766666667,-99.2332366666667,14.1,20.5,296,973.69,18.8,77,21.07,0.0,999.38,234.6
2019-07-29 00:10,53.2124816666667,-99.233335,10.9,13.8,318,974.18,18.6,80,21.23,0.0,999.89,234.6
2019-07-29 00:20,53.2082066666667,-99.242585,11.2,20.5,311,974.41,17.9,87,21.46,2.5,1000.18,234.6
2019-07-29 00:30,53.1873016666667,-99.25496,12.0,17.4,282,974.66,18.4,83,21.75,8.0,1000.42,234.6
2019-07-29 00:40,53.1827,-99.2544833333333,8.3,13.9,302,975.02,18.7,78,22.15,1.7,1000.76,234.6
2019-07-29 00:50,53.1826983333333,-99.254475,10.5,16.6,303,975.30,18.2,79,22.23,0.0,1001.07,234.6
2019-07-29 01:00,53.1827,-99.2544783333333,9.7,17.4,294,975.58,18.1,81,22.24,0.0,1001.36,235.3
2019-07-29 01:10,53.1826966666667,-99.2544766666667,16.7,26.8,319,975.54,18.2,77,22.26,0.0,1001.30,235.3
2019-07-29 01:20,53.1826966666667,-99.2544783333333,17.4,26.6,324,975.77,17.9,77,22.27,0.0,1001.55,235.3
2019-07-29 01:30,53.182695,-99.2544766666667,21.0,30.8,328,975.78,17.6,78,22.27,0.0,1001.57,235.3
2019-07-29 01:40,53.1826916666667,-99.2544783333333,22.9,33.3,331,975.97,17.2,80,22.27,0.0,1001.78,235.3
2019-07-29 01:50,53.1826933333333,-99.2544816666667,17.4,28.0,323,976.90,16.7,83,22.28,0.0,1002.75,235.3
2019-07-29 02:00,53.1826933333333,-99.25448,20.2,29.6,319,977.21,16.0,84,22.28,0.0,1003.11,223.7
2019-07-29 02:10,53.182695,-99.25448,19.1,28.8,318,977.70,15.7,85,22.27,0.0,1003.66,223.7
2019-07-29 02:20,53.1826933333333,-99.2544783333333,17.8,26.0,316,978.15,15.2,87,22.29,0.0,1004.13,223.7
2019-07-29 02:30,53.1826966666667,-99.2544783333333,16.6,23.8,311,978.58,15.2,86,22.29,0.0,1004.55,223.7
2019-07-29 02:40,53.1826983333333,-99.2544783333333,21.0,28.7,319,978.40,15.1,84,22.29,0.0,1004.39,223.7
2019-07-29 02:50,53.1826983333333,-99.2544766666667,18.0,26.1,316,978.99,15.1,84,22.28,0.0,1005.00,223.7
2019-07-29 03:00,53.1826983333333,-99.2544766666667,17.3,26.7,317,979.35,15.0,85,22.26,0.0,1005.38,203.1
2019-07-29 03:10,53.18269,-99.25447,16.7,25.7,322,979.64,15.1,84,22.21,0.0,1005.68,203.1
2019-07-29 03:20,53.1826966666667,-99.2544733333333,17.9,26.3,317,980.10,15.0,85,22.20,0.0,1006.17,203.1
2019-07-29 03:30,53.1827,-99.2544716666667,18.4,27.5,319,980.26,14.5,87,22.18,0.0,1006.37,203.1
2019-07-29 03:40,53.1827066666667,-99.2544633333333,18.9,28.0,320,980.36,14.4,86,22.14,0.0,1006.51,203.1
2019-07-29 03:50,53.182705,-99.2544783333333,18.8,27.5,314,980.78,14.5,84,22.12,0.0,1006.96,203.1
2019-07-29 04:00,53.1826983333333,-99.254485,18.2,26.0,314,980.96,14.5,83,22.09,0.0,1007.16,360.0
2019-07-29 04:10,53.1827,-99.2544783333333,20.3,29.7,320,980.84,14.5,83,22.07,0.0,1007.07,360.0
2019-07-29 04:20,53.1827,-99.2544816666667,18.4,24.2,319,981.17,14.3,83,22.02,0.0,1007.41,360.0
2019-07-29 04:30,53.1827016666667,-99.25448,16.9,26.7,314,981.78,14.1,85,21.99,0.0,1008.05,360.0
2019-07-29 04:40,53.1827016666667,-99.2544816666667,17.3,24.6,317,981.94,14.0,85,21.98,0.0,1008.22,360.0
2019-07-29 04:50,53.1827016666667,-99.2544833333333,17.2,27.1,315,982.30,13.7,87,21.98,0.0,1008.61,360.0
2019-07-29 05:00,53.1827016666667,-99.254485,19.2,27.9,321,982.31,13.4,87,21.98,0.0,1008.63,360.0
2019-07-29 05:10,53.1827016666667,-99.2544866666667,16.4,23.8,315,982.84,13.5,87,21.98,0.0,1009.18,360.0
2019-07-29 05:20,53.1827,-99.2544866666667,18.7,24.5,318,982.93,13.1,88,21.95,0.0,1009.31,360.0
2019-07-29 05:30,53.1827,-99.2544866666667,16.2,24.6,316,983.33,13.1,86,21.92,0.0,1009.71,360.0
2019-07-29 05:40,53.1827,-99.2544866666667,18.1,24.4,318,983.29,13.3,83,21.89,0.0,1009.66,360.0
2019-07-29 05:50,53.1827,-99.2544883333333,18.9,28.7,319,983.27,13.3,82,21.85,0.0,1009.64,360.0
2019-07-29 06:00,53.1827,-99.2544883333333,18.7,28.4,322,983.43,13.4,81,21.80,0.0,1009.81,360.0
2019-07-29 06:10,53.1827,-99.2544883333333,18.9,27.6,320,983.73,13.4,78,21.78,0.0,1010.12,360.0
2019-07-29 06:20,53.1827,-99.2544883333333,17.9,23.5,319,984.02,13.2,77,21.70,0.0,1010.44,360.0
2019-07-29 06:30,53.1827,-99.2544883333333,17.9,26.6,320,984.20,13.3,77,21.67,0.0,1010.63,360.0
2019-07-29 06:40,53.1827,-99.2544883333333,18.0,22.9,317,984.35,13.2,78,21.62,0.0,1010.79,360.0
2019-07-29 06:50,53.182695,-99.2544966666667,17.9,25.2,314,984.48,13.0,77,21.56,0.0,1010.95,360.0
2019-07-29 07:00,53.1827033333333,-99.2544966666667,18.0,26.2,315,984.58,12.8,76,21.56,0.0,1011.06,360.0
2019-07-29 07:10,53.1827033333333,-99.2544933333333,17.6,23.8,311,984.84,12.6,76,21.56,0.0,1011.36,360.0
2019-07-29 07:20,53.1827016666667,-99.254495,15.7,20.8,308,985.21,12.3,77,21.46,0.0,1011.75,360.0
2019-07-29 07:30,53.1827033333333,-99.2544933333333,15.8,23.2,308,985.41,12.0,76,21.44,0.0,1011.96,360.0
2019-07-29 07:40,53.1827016666667,-99.2544933333333,14.3,19.9,307,985.62,11.9,76,21.42,0.0,1012.18,360.0
2019-07-29 07:50,53.1827016666667,-99.254495,15.0,20.6,304,985.76,11.8,75,21.36,0.0,1012.33,360.0
2019-07-29 08:00,53.1827016666667,-99.2544966666667,16.4,21.2,309,985.82,11.8,73,21.33,0.0,1012.39,270.0
2019-07-29 08:10,53.1827016666667,-99.2544966666667,15.2,21.9,306,986.12,11.7,72,21.33,0.0,1012.71,270.0
2019-07-29 08:20,53.1827033333333,-99.2544966666667,12.7,19.2,304,986.49,11.5,71,21.30,0.0,1013.09,270.0
2019-07-29 08:30,53.1827033333333,-99.2544983333333,12.4,17.6,300,986.77,11.4,72,21.27,0.0,1013.39,270.0
2019-07-29 08:40,53.1827033333333,-99.2545,10.8,16.5,299,986.99,11.4,73,21.26,0.0,1013.62,270.0
2019-07-29 08:50,53.182705,-99.2545,11.8,19.9,304,986.94,11.4,74,21.24,0.0,1013.58,270.0
2019-07-29 09:00,53.182705,-99.2544983333333,13.0,17.7,305,986.94,11.4,74,21.18,0.0,1013.59,270.0
2019-07-29 09:10,53.1827133333333,-99.2544983333333,13.2,17.7,310,986.99,11.4,73,21.14,0.0,1013.66,270.0
2019-07-29 09:20,53.18271,-99.2544983333333,14.3,18.6,310,987.06,11.3,73,21.13,0.0,1013.75,270.0
2019-07-29 09:30,53.1827066666667,-99.2544966666667,14.4,20.7,311,987.13,11.3,73,21.13,0.0,1013.83,270.0
2019-07-29 09:40,53.1827066666667,-99.2544983333333,14.3,19.2,313,987.27,11.2,72,21.13,0.0,1013.97,270.0
2019-07-29 09:50,53.1826783333333,-99.2545,13.8,17.4,313,987.40,11.2,72,21.10,0.0,1014.11,270.0
2019-07-29 10:00,53.1826866666667,-99.2544966666667,14.7,18.2,314,987.49,11.2,71,21.04,0.0,1014.21,360.0
2019-07-29 10:10,53.18269,-99.2544983333333,13.4,16.6,312,987.83,11.0,70,21.00,0.0,1014.58,360.0
2019-07-29 10:20,53.1826933333333,-99.2544966666667,12.4,16.4,315,988.00,10.9,72,21.00,0.0,1014.76,360.0
2019-07-29 10:30,53.182695,-99.2544966666667,12.5,15.9,314,988.08,11.0,72,20.94,0.0,1014.84,360.0
2019-07-29 10:40,53.1826966666667,-99.2544983333333,11.9,15.7,313,988.28,11.0,71,20.95,0.0,1015.05,360.0
2019-07-29 10:50,53.1826966666667,-99.2544983333333,11.6,15.7,314,988.44,10.9,71,20.92,0.0,1015.22,360.0
2019-07-29 11:00,53.1826983333333,-99.2544966666667,11.6,17.1,313,988.65,10.8,72,20.96,0.0,1015.43,360.0
2019-07-29 11:10,53.1826966666667,-99.2544966666667,11.4,15.6,315,988.82,10.8,74,20.91,0.0,1015.61,360.0
2019-07-29 11:20,53.1826983333333,-99.254495,10.7,14.4,314,988.98,10.9,74,21.00,0.0,1015.77,360.0
2019-07-29 11:30,53.1827,-99.2544933333333,10.4,14.2,312,989.12,11.1,74,21.05,0.0,1015.91,360.0
2019-07-29 11:40,53.1827033333333,-99.2544783333333,9.9,13.0,313,989.21,11.3,75,21.13,0.0,1015.99,360.0
2019-07-29 11:50,53.1826983333333,-99.2544766666667,9.8,14.3,318,989.26,11.5,74,21.16,0.0,1016.04,360.0
2019-07-29 12:00,53.1826983333333,-99.25448,8.2,11.0,313,989.47,11.7,74,21.21,0.0,1016.26,144.2
2019-07-29 12:10,53.1826983333333,-99.25448,7.8,10.5,316,989.62,11.8,74,21.17,0.0,1016.41,144.2
2019-07-29 12:20,53.1826983333333,-99.2544816666667,8.2,11.2,317,989.71,12.0,74,21.24,0.0,1016.48,144.2
2019-07-29 12:30,53.1826966666667,-99.25448,9.1,12.7,320,989.79,12.4,73,21.23,0.0,1016.55,144.2
2019-07-29 12:40,53.1826966666667,-99.25448,10.9,14.9,327,989.84,12.6,71,21.26,0.0,1016.59,144.2
2019-07-29 12:50,53.1826966666667,-99.25448,11.1,16.0,333,989.83,13.0,69,21.25,0.0,1016.57,144.2
2019-07-29 13:00,53.1826966666667,-99.25448,11.3,15.7,334,989.88,13.2,65,21.25,0.0,1016.61,44.3
2019-07-29 13:10,53.1826966666667,-99.25448,11.3,15.9,335,989.97,13.4,63,21.24,0.0,1016.69,44.3
2019-07-29 13:20,53.1826966666667,-99.25448,10.7,14.6,340,990.04,13.7,61,21.20,0.0,1016.74,44.3
2019-07-29 13:30,53.1826966666667,-99.25448,11.9,15.2,338,990.08,13.9,58,21.18,0.0,1016.76,44.3
2019-07-29 13:40,53.182695,-99.25448,10.7,14.5,344,990.17,14.1,57,21.19,0.0,1016.84,44.3
2019-07-29 13:50,53.182695,-99.25448,11.2,16.7,342,990.24,14.2,54,21.20,0.0,1016.89,44.3
2019-07-29 14:00,53.182695,-99.25448,11.5,15.2,341,990.30,14.4,54,21.21,0.0,1016.94,90.0
2019-07-29 14:10,53.182695,-99.25448,11.6,16.8,335,990.29,14.3,53,21.24,0.0,1016.92,90.0
2019-07-29 14:20,53.182695,-99.25448,12.2,16.5,339,990.30,14.5,53,21.21,0.0,1016.91,90.0
2019-07-29 14:30,53.182695,-99.25448,10.9,17.2,332,990.52,14.5,53,21.17,0.0,1017.11,90.0
2019-07-29 14:40,53.182695,-99.25448,9.3,14.1,335,990.64,14.6,52,21.16,0.0,1017.22,90.0
2019-07-29 14:50,53.182695,-99.25448,9.4,14.7,325,990.66,14.9,50,21.13,0.0,1017.22,90.0
2019-07-29 15:00,53.182695,-99.2544783333333,10.8,15.2,316,990.68,15.0,48,21.11,0.0,1017.23,90.0
2019-07-29 15:10,53.182695,-99.2544783333333,8.9,13.2,325,990.75,15.1,48,21.11,0.0,1017.28,90.0
2019-07-29 15:20,53.182695,-99.2544783333333,11.1,15.7,330,990.70,15.3,48,21.11,0.0,1017.21,90.0
2019-07-29 15:30,53.1826966666667,-99.2544783333333,10.4,17.8,334,990.71,15.4,48,21.12,0.0,1017.20,90.0
2019-07-29 15:40,53.1826966666667,-99.2544783333333,11.6,18.0,329,990.73,15.4,47,21.14,0.0,1017.22,90.0
2019-07-29 15:50,53.1826983333333,-99.2544716666667,9.9,15.5,332,990.85,15.5,48,21.22,0.0,1017.33,90.0
2019-07-29 16:00,53.1826983333333,-99.254475,12.2,20.4,339,990.75,15.7,45,21.32,0.0,1017.22,0.0
2019-07-29 16:10,53.1826983333333,-99.2544716666667,10.8,16.8,322,990.91,15.8,45,21.41,0.0,1017.37,0.0
2019-07-29 16:20,53.1826983333333,-99.2544733333333,12.9,18.1,339,990.68,15.9,44,21.40,0.0,1017.13,0.0
2019-07-29 16:30,53.1826983333333,-99.2544733333333,12.3,18.8,344,990.64,16.0,43,21.37,0.0,1017.08,0.0
2019-07-29 16:40,53.1826983333333,-99.2544733333333,10.7,17.0,342,990.65,16.1,43,21.37,0.0,1017.08,0.0
2019-07-29 16:50,53.182715,-99.2545166666667,10.4,17.4,332,990.69,16.2,44,21.37,0.0,1017.11,0.0
2019-07-29 17:00,53.19412,-99.2544216666667,14.0,20.6,336,990.48,16.4,42,21.40,4.1,1016.87,1.3
2019-07-29 17:10,53.2163316666667,-99.2267566666667,18.4,25.1,358,990.17,16.3,43,21.36,10.0,1016.55,1.3
2019-07-29 17:20,53.2254183333333,-99.1784416666667,13.1,18.1,356,990.89,16.2,43,19.06,10.9,1017.29,1.3
2019-07-29 17:30,53.2360033333333,-99.1308133333333,13.7,18.0,9,990.68,16.2,43,17.91,10.9,1017.08,1.3
2019-07-29 17:40,53.2471083333333,-99.0841533333333,15.5,19.5,6,990.70,16.3,43,19.26,10.8,1017.08,1.3
2019-07-29 17:50,53.24965,-99.0685516666667,9.5,14.7,350,990.93,16.2,44,18.26,3.5,1017.31,1.3
2019-07-29 18:00,53.2528283333333,-99.0549583333333,10.9,14.7,347,990.93,16.3,43,18.00,3.1,1017.31,59.5
2019-07-29 18:10,53.2566433333333,-99.04182,9.9,12.5,336,990.97,16.4,43,17.72,3.1,1017.35,59.5
2019-07-29 18:20,53.2620566666667,-99.026515,10.3,13.6,338,990.97,16.5,44,18.25,3.8,1017.33,59.5
2019-07-29 18:30,53.2628716666667,-99.0256916666667,9.3,13.2,318,990.83,16.9,43,18.57,0.3,1017.17,59.5
2019-07-29 18:40,53.2628583333333,-99.02561,10.4,13.9,310,990.80,16.9,44,18.64,0.0,1017.13,59.5
2019-07-29 18:50,53.262815,-99.02573,9.6,13.3,325,990.77,17.0,41,18.67,0.0,1017.08,59.5
2019-07-29 19:00,53.2628283333333,-99.0259616666667,9.3,12.6,328,990.79,17.1,41,18.70,0.1,1017.11,59.5
2019-07-29 19:10,53.2628283333333,-99.025925,8.0,10.5,333,990.78,17.2,41,18.70,0.0,1017.10,59.5
2019-07-29 19:20,53.2628333333333,-99.02583,9.2,11.5,336,990.67,17.3,41,18.72,0.0,1016.97,59.5
2019-07-29 19:30,53.262805,-99.0257083333333,10.7,14.4,328,990.58,17.4,40,18.75,0.0,1016.87,59.5
2019-07-29 19:40,53.25867,-98.9994216666667,6.6,14.7,20,990.72,17.4,42,18.73,5.9,1017.02,59.5
2019-07-29 19:50,53.2489183333333,-98.9518316666667,13.1,15.3,79,990.39,16.7,48,18.24,10.8,1016.71,59.5
2019-07-29 20:00,53.2403466666667,-98.9038466666667,11.4,12.7,83,990.50,16.5,48,17.73,10.8,1016.84,77.4
2019-07-29 20:10,53.2333916666667,-98.854905,11.8,13.8,77,990.45,16.5,49,17.86,10.8,1016.77,77.4
2019-07-29 20:20,53.22712,-98.80571,11.0,12.7,74,990.47,16.5,48,17.69,10.8,1016.78,77.4
2019-07-29 20:30,53.2205583333333,-98.7565366666667,9.4,10.8,72,990.57,16.5,48,17.62,10.9,1016.88,77.4
2019-07-29 20:40,53.2144066666667,-98.7074516666667,9.0,10.4,71,990.59,16.6,48,17.66,10.8,1016.89,77.4
2019-07-29 20:50,53.20948,-98.6706316666667,6.5,10.5,67,990.66,16.6,49,17.87,8.1,1016.96,77.4
2019-07-29 21:00,53.2082366666667,-98.6593316666667,3.8,4.8,16,990.72,16.6,49,17.99,2.5,1017.02,100.5
2019-07-29 21:10,53.20745,-98.6489483333333,3.3,4.8,23,990.77,16.7,49,18.11,2.3,1017.06,100.5
2019-07-29 21:20,53.2082383333333,-98.6379566666667,4.1,5.5,55,990.77,16.9,49,18.17,2.4,1017.04,100.5
2019-07-29 21:30,53.205805,-98.6264466666667,4.1,6.2,76,990.77,16.6,49,18.23,2.6,1017.06,100.5
2019-07-29 21:40,53.2040183333333,-98.6171533333333,2.9,7.0,83,990.79,16.8,48,18.35,2.1,1017.10,100.5
2019-07-29 21:50,53.2040233333333,-98.6173,1.8,2.8,44,990.76,17.4,45,18.27,0.0,1017.05,100.5
2019-07-29 22:00,53.2040116666667,-98.6172366666667,1.8,2.7,55,990.75,17.4,44,18.16,0.0,1017.04,103.4
2019-07-29 22:10,53.2040416666667,-98.617295,1.5,2.2,92,990.67,17.6,45,18.27,0.0,1016.95,103.4
2019-07-29 22:20,53.19549,-98.58977,7.7,12.8,115,990.50,17.3,45,18.37,6.7,1016.79,103.4
2019-07-29 22:30,53.181465,-98.54549,11.0,12.0,116,990.40,16.8,46,18.46,10.8,1016.71,103.4
2019-07-29 22:40,53.1677733333333,-98.5006833333333,10.1,11.3,108,990.41,16.8,46,18.57,10.9,1016.71,103.4
2019-07-29 22:50,53.15359,-98.45633,9.8,11.0,114,990.44,16.8,47,18.75,10.9,1016.74,103.4
2019-07-29 23:00,53.1398883333333,-98.4114283333333,9.4,10.4,117,990.38,16.9,47,18.79,10.9,1016.67,108.6
2019-07-29 23:10,53.1261516666667,-98.366745,7.9,9.1,117,990.38,16.9,47,18.74,10.8,1016.67,108.6
2019-07-29 23:20,53.1129,-98.3209183333333,7.5,8.9,112,990.37,17.0,47,19.23,11.0,1016.67,108.6
2019-07-29 23:30,53.0990566666667,-98.2757766666667,6.7,8.2,110,990.34,17.1,48,18.94,11.0,1016.62,108.6
2019-07-29 23:40,53.0898066666667,-98.2459483333333,2.6,7.0,124,990.37,17.5,47,18.74,7.3,1016.61,108.6
2019-07-29 23:50,53.086665,-98.2364283333333,1.8,3.6,275,990.38,18.8,44,18.66,2.3,1016.56,108.6
